Location: Marestaing
(43.5790°N, 1.0194°E)
Time: 09:07:14
(UTC+00:00)

Daily predictions for brighter satellites

Satellite Brightness Start Highest point End
(mag) Time Altitude Azimuth Time Altitude Azimuth Time Altitude Azimuth
Cosmos 1125 Rocket 3.5 20:05:18 10° NNW 20:10:34 75° ENE 20:15:44 10° SSE
USA 186 3.3 20:11:48 10° E 20:12:55 12° ENE 20:14:00 10° NE
PAYLOAD B 4.3 20:07:26 10° SSE 20:13:01 89° ENE 20:18:39 10° NNW
Cosmos 1812 Rocket 4.4 20:17:01 10° SSW 20:21:22 56° W 20:25:44 10° N
Terra 2.0 20:20:25 10° S 20:25:06 73° WSW 20:29:49 10° NNW
CENTAUR R/B 2.8 20:21:13 10° SW 20:26:33 69° NW 20:33:24 10° NE
Cosmos 44 Rocket 3.6 20:24:07 10° NNW 20:29:17 66° NE 20:34:01 11° SE
Meteor 1-27 Rocket 3.8 20:26:27 10° S 20:32:04 86° W 20:37:38 10° N
Cosmos 2208 Rocket 4.1 20:28:37 10° S 20:33:40 55° ESE 20:38:43 10° NNE
CZ-3 Stage 3 4.1 20:31:29 10° WSW 20:34:26 12° SW 20:36:33 10° SSW
BREEZE-M DEB (TANK) 4.3 20:33:49 10° WNW 20:36:18 23° N 20:38:02 10° NE
SPOT 3 Rocket 4.3 20:33:59 11° SE 20:38:26 37° ENE 20:43:08 10° N
Cosmos 2082 4.4 20:36:55 10° SW 20:42:26 58° WNW 20:47:59 10° NNE
Cosmos 2227 4.2 20:37:50 10° SSW 20:43:31 67° ESE 20:49:14 10° NNE
YAOGAN 11 4.2 20:40:06 10° NNE 20:44:31 59° E 20:48:50 10° S
Meteor 2-20 Rocket 4.3 20:40:20 10° S 20:46:04 74° E 20:52:03 10° NNE
CZ-4 R/B 3.5 20:43:29 10° SSW 20:46:26 22° W 20:49:26 10° NW
Okean 3 Rocket 4.5 20:44:01 10° N 20:48:04 34° ENE 20:51:06 16° SE
Ariane Rocket 3.9 20:44:08 13° SE 20:48:05 34° ENE 20:52:39 10° N
Okean-O 2.6 20:44:49 11° SSE 20:49:04 85° ENE 20:53:27 10° NNW
Cosmos 2266 Rocket 4.2 20:43:32 10° NNW 20:49:44 73° W 20:56:01 10° S
Helios 1A Rocket 3.4 20:47:29 10° N 20:50:28 44° WNW 20:53:27 10° SW
Spot 2 Rocket 3.6 20:45:50 10° SSE 20:50:52 82° WSW 20:55:59 10° NNW
CZ-4B R/B 4.0 20:48:51 10° S 20:54:09 50° W 20:59:23 10° NNW
NOSS 3-2 (A) 2.9 20:49:27 10° SSW 20:54:18 71° ESE 21:00:01 10° NE
Cosmos 1842 Rocket 3.5 20:51:55 10° S 20:56:21 76° E 21:00:47 10° NNE
Cosmos 1340 Rocket 3.5 20:54:14 10° N 20:57:42 34° ENE 20:59:47 19° SE
USA 215 4.3 20:52:13 10° E 20:58:10 40° NNE 21:04:09 10° NW
Cosmos 773 Rocket 4.2 20:53:35 10° SSW 20:58:41 72° WNW 21:03:52 10° NNE
Cosmos 1603 4.0 20:53:46 10° NNW 20:59:25 56° ENE 21:03:42 17° SE
BREEZE-M DEB (TANK) 0.8 20:59:03 10° WNW 21:01:11 69° SSW 21:01:54 32° SE
ADEOS 4.4 20:56:22 10° S 21:01:22 47° W 21:06:24 10° NNW
OAO 3 Rocket 4.1 21:00:06 10° WSW 21:03:57 27° S 21:05:58 20° SE
USA 245 3.3 21:03:10 20° SSE 21:05:39 55° ENE 21:08:50 10° N
Cosmos 1844 Rocket 2.7 21:00:23 10° SSW 21:05:57 82° WNW 21:11:33 10° NNE
EXPRESS MD2 2.9 21:02:34 10° WNW 21:06:49 62° SW 21:08:15 26° SE
SL-14 R/B 3.0 21:06:08 14° S 21:09:14 74° E 21:12:57 10° NNE
Meteor 2-10 Rocket 3.8 21:03:56 10° NNW 21:09:47 81° W 21:14:48 14° S
Cosmos 1238 Rocket 4.4 21:05:59 10° SSW 21:10:39 45° WNW 21:15:15 10° N
Cosmos 1553 Rocket 4.4 21:07:18 16° SSE 21:12:06 46° E 21:18:05 10° NNE
CZ-4C R/B 3.3 21:08:32 10° NW 21:15:44 68° WSW 21:22:42 17° SSE
Cosmos 1151 Rocket 3.4 21:14:27 22° SSE 21:16:57 46° E 21:21:06 10° NNE
Cosmos 1833 Rocket 4.3 21:14:22 10° N 21:18:48 23° NE 21:22:56 11° E
CZ-2C R/B 3.3 21:23:48 24° E 21:24:13 25° ENE 21:26:32 10° NNE
SL-24 R/B - RUBIN 2 4.5 21:22:18 10° SW 21:26:45 51° NW 21:31:01 10° NNE
Cosmos 1844 4.2 21:21:24 10° SW 21:27:08 63° WNW 21:32:54 10° NNE
CZ-4B R/B 3.5 21:24:45 23° SSE 21:27:57 74° ENE 21:33:07 10° N
Okean O Rocket 2.9 21:24:41 11° SSW 21:28:31 36° W 21:32:33 10° NNW
Cosmos 1953 4.0 21:26:23 10° NNE 21:28:45 17° ENE 21:29:35 15° E
OAO 2 Rocket 4.2 21:29:11 10° SW 21:33:45 30° S 21:35:03 27° SSE
In-Cosmos 22 4.4 21:28:08 10° SSW 21:33:52 79° W 21:39:39 10° N
NOSS 3-2 (C) 3.1 21:31:30 13° SSW 21:35:42 54° ESE 21:41:14 10° NE
BlueWalker 3 4.3 21:37:59 10° WSW 21:38:17 10° SW 21:38:34 10° SW
NOSS 2-3 (C) 4.2 21:42:37 26° E 21:42:37 26° E 21:44:51 10° ENE
USA 186 3.7 21:41:05 12° WSW 21:42:03 14° W 21:43:27 10° WNW
Cosmos 1461 2.3 21:40:40 10° NW 21:44:11 83° SW 21:45:06 46° SSE
CZ-4B R/B 3.2 21:42:34 26° SSW 21:44:28 56° W 21:48:21 10° NNW
ATLAS 2AS CENTAUR R/B 4.4 21:45:30 10° WNW 21:50:23 21° WSW 21:55:19 10° SSW
Cosmos 2344 3.9 21:48:48 20° S 21:53:59 42° ESE 22:00:38 10° NE
Sich 1 4.1 21:50:59 10° NNW 21:54:57 38° W 21:57:32 19° SSW
Cosmos 1500 Rocket 3.5 21:50:41 10° N 21:55:01 81° W 21:56:47 35° S
Helios 1A 3.8 21:53:47 10° NE 21:57:17 30° E 21:57:27 30° ESE
Iridium 4 Rocket 3.6 21:55:05 30° SSE 21:57:50 71° E 22:02:57 10° N
Helios 1B rocket 4.2 21:57:42 14° ENE 21:58:21 15° ENE 22:00:19 10° NNE
BREEZE-M R/B 4.0 21:57:27 30° S 21:59:19 43° SE 22:06:54 10° ENE
GP-B 3.0 21:55:12 10° N 21:59:35 90° NNW 22:01:23 35° S
Cosmos 1607 4.0 21:55:44 10° NW 22:02:11 88° ENE 22:05:32 31° SE
Cosmos 1241 Rocket 4.4 22:02:40 21° SSW 22:06:48 64° ESE 22:12:57 10° NE
NOSS 2-3 (D) 3.1 22:07:03 26° SW 22:09:01 84° NW 22:12:47 10° NE
Cosmos 2285 Rocket 4.1 22:03:25 10° NNW 22:09:46 74° WSW 22:13:01 31° S
Cosmos 1538 Rocket 3.9 22:11:36 31° S 22:14:06 79° ESE 22:19:20 10° NNE
Cosmos 2315 Rocket 4.3 22:13:38 33° SSE 22:16:09 52° E 22:22:09 10° NNE
Cosmos 1943 Rocket 3.1 22:16:33 28° ESE 22:17:13 28° ESE 22:21:58 10° NE
Iridium 45 4.1 22:18:34 81° NNW 22:18:34 81° NNW 22:21:32 10° N
Cosmos 1328 Rocket 3.5 22:24:40 53° SSE 22:25:30 67° E 22:29:50 10° NNE
Ariane Rocket 4.4 22:24:12 19° SW 22:26:56 30° W 22:31:24 10° NW
CZ-2C R/B 4.5 22:24:57 10° NNE 22:29:17 37° E 22:29:46 36° ESE
Lacrosse 5 rocket 1.9 22:30:44 35° ENE 22:30:44 35° ENE 22:33:00 10° NE
NOSS 2-3 (E) 4.3 22:33:45 14° WSW 22:36:42 42° NW 22:40:17 10° NNE
Cosmos 1666 Rocket 3.4 22:32:23 10° N 22:36:45 84° E 22:37:29 61° SSE
Cosmos 1703 4.4 22:37:13 24° W 22:37:54 26° WNW 22:40:38 10° NNW
USA 215 3.2 22:37:28 32° SE 22:40:48 85° SW 22:47:23 10° NW
GEOS 3 Rocket 4.1 22:45:16 30° ESE 22:47:48 57° NE 22:53:05 10° NNW
S3M 4.1 22:48:41 32° SSW 22:51:38 68° W 22:57:46 10° N
Timation 1 Rocket 4.4 22:46:36 10° NNW 22:52:36 74° ENE 22:54:45 41° SE
Cosmos 1515 Rocket 3.7 22:55:38 54° ESE 22:55:52 55° E 23:00:08 10° NNE
Meteor 1-15 Rocket 4.4 22:53:35 10° NNW 22:59:20 64° W 23:01:13 41° SSW
USA 59 Rocket 1.3 23:01:29 21° ENE 23:01:29 21° ENE 23:02:44 10° NE
Spot 4 4.0 22:59:30 49° ESE 23:00:32 62° ENE 23:05:19 10° N
ARGOS Delta rocket 4.0 22:55:29 10° N 23:00:53 88° E 23:02:18 50° S
Cosmos 1833 Rocket 2.8 22:57:35 10° NNW 23:03:09 63° WSW 23:04:36 47° SSW
Cosmos 1953 3.4 23:00:35 10° NNW 23:03:43 29° W 23:03:46 29° W
Cosmos 1709 Rocket 4.3 23:00:46 10° NNW 23:07:01 61° W 23:09:28 37° SSW
Meteor 1-16 Rocket 4.1 23:01:35 10° NNW 23:07:08 83° W 23:08:42 50° S
Cosmos 2082 Rocket 3.5 23:03:50 10° N 23:08:51 32° NE 23:11:52 20° ESE
Okean 3 3.9 23:09:18 45° E 23:09:18 45° E 23:12:51 10° NNE
Meteor 1-23 Rocket 4.3 23:07:55 40° SSW 23:09:56 68° WNW 23:15:30 10° N
Cosmos 2278 Rocket 2.3 23:09:54 50° SSE 23:11:00 59° ESE 23:16:34 10° NNE
Cosmos 1633 Rocket 3.6 23:10:19 10° NNW 23:14:30 45° W 23:15:02 43° WSW
Cosmos 1680 Rocket 3.4 23:22:43 52° SSW 23:24:00 80° WNW 23:29:14 10° NNE
Cosmos 494 Rocket 3.9 23:24:38 57° SSW 23:25:44 89° ESE 23:31:01 10° NNE
Cosmos 1400 Rocket 2.9 23:22:13 10° N 23:25:30 60° NE 23:25:30 60° NE
Cosmos 1624 Rocket 4.0 23:20:45 10° NNW 23:26:04 78° ENE 23:27:15 55° SE
CZ-2C R/B 3.3 23:23:20 10° NNE 23:28:46 54° E 23:29:38 48° SE
Helios 1B rocket 3.3 23:31:35 33° WNW 23:31:35 33° WNW 23:34:11 10° NNW
Cosmos 1048 Rocket 4.3 23:31:20 46° ESE 23:31:47 47° ESE 23:36:48 10° NNE
Meteor 1-12 Rocket 4.3 23:26:38 10° NNW 23:32:18 73° W 23:33:43 51° SSW
Cosmos 2056 Rocket 3.3 23:27:40 10° NNW 23:32:48 88° WSW 23:33:39 63° SSE
ARIANE 5 R/B 2.8 23:36:34 57° WSW 23:36:49 58° W 23:41:13 10° NNW
USA 238 DEB 3.5 23:36:16 35° SW 23:39:02 81° NW 23:45:44 10° NE
USA 238 3.5 23:36:31 36° SW 23:39:14 82° NW 23:45:57 10° NE
ACS3 Solar Sail 2.6 23:36:43 10° NNE 23:41:54 34° E 23:43:11 31° ESE
Okean 2 4.5 23:42:05 31° W 23:42:19 32° WNW 23:45:48 10° N
BREEZE-M DEB (TANK) 4.3 23:35:21 10° W 23:48:55 53° N 23:53:07 10° ENE
ALOS 2 3.0 23:49:18 49° WSW 23:49:24 49° W 23:53:41 10° NNW
Geosat 4.4 23:44:39 10° NE 23:49:26 45° ESE 23:49:42 44° ESE
Cosmos 1441 Rocket 3.9 23:54:18 42° NNW 23:54:18 42° NNW 23:56:39 10° N
Cosmos 1933 Rocket 3.6 23:49:34 10° NNW 23:53:50 61° W 23:53:52 61° W
